Flag for USA

Past Weather in Old Washington Historic State Park, Arkansas, USA — Yesterday and Last 2 Weeks

Now
81 °F

Scattered clouds.


Feels Like: 85 °F
Forecast: 89 / 70 °F
Wind: 8 mph from South

Location: Texarkana Regional-Webb Field

Current Time: May 24, 2019 at 12:12:11 pm

Latest Report: May 24, 2019 at 10:53 am


Visibility: 10 mi

Pressure: 30.09 "Hg

Humidity: 69%

Dew Point: 70 °F

Location of Old Washington Historic State ParkLocation

Past Weather in Old Washington Historic State Park — Graph

°F

Old Washington Historic State Park Temperature Yesterday

Maximum temperature yesterday: 87 °F (at 2:53 pm)
Minimum temperature yesterday: 73 °F (at 4:53 am)
Average temperature yesterday: 80 °F

High & Low Weather Summary for the Past Weeks

 TemperatureHumidityPressure
High88 °F (May 22, 4:53 pm)100% (May 11, 2:53 am)30.12 "Hg (May 11, 2:53 am)
Low55 °F (May 11, 2:21 am)36% (May 13, 3:53 pm)29.64 "Hg (May 21, 12:53 pm)
Average71 °F79%29.90 "Hg
* Reported May 9 10:15 am — May 24 10:53 am, Old Washington Historic State Park. Weather by CustomWeather, © 2019

Note: Actual official high and low records may vary slightly from our data, if they occured in-between our weather recording intervals... More about our weather records

Advertising

Old Washington Historic State Park Weather History for the Previous 24 Hours

Scroll right to see more
 ConditionsComfort  
Time TempWeatherWind HumidityBarometerVisibility
10:53 am
Fri, May 24
81 °FScattered clouds.8 mph69%30.09 "Hg10 mi
10:13 am80 °FPartly sunny.10 mph71%30.11 "Hg10 mi
10:02 am78 °FScattered clouds.12 mph76%30.12 "Hg10 mi
8:53 am75 °FPartly sunny.12 mph88%30.09 "Hg10 mi
8:00 am73 °FPartly sunny.8 mph94%30.09 "Hg10 mi
6:53 am71 °FPassing clouds.7 mph96%30.05 "Hg7 mi
5:53 am71 °FClear.8 mph93%30.03 "Hg10 mi
4:53 am72 °FClear.7 mph91%30.01 "Hg10 mi
3:53 am72 °FClear.9 mph91%30.01 "Hg10 mi
2:53 am73 °FClear.6 mph88%30.01 "Hg10 mi
1:53 am74 °FClear.7 mph85%30.01 "Hg10 mi
12:53 am76 °FClear.9 mph80%30.02 "Hg10 mi
11:53 pm
Thu, May 23
76 °FClear.9 mph82%30.02 "Hg10 mi
10:53 pm77 °FClear.9 mph79%30.02 "Hg10 mi
9:53 pm78 °FClear.8 mph76%30.01 "Hg10 mi
8:53 pm79 °FClear.6 mph74%30.00 "Hg10 mi
7:53 pm82 °FSunny.6 mph67%29.99 "Hg10 mi
6:53 pm85 °FSunny.8 mph61%29.99 "Hg10 mi
5:53 pm87 °FSunny.12 mph55%30.01 "Hg10 mi
4:53 pm87 °FPassing clouds.13 mph57%30.02 "Hg10 mi
3:53 pm87 °FPassing clouds.10 mph55%30.04 "Hg10 mi
2:53 pm87 °FPassing clouds.10 mph55%30.05 "Hg10 mi
1:53 pm86 °FScattered clouds.14 mph57%30.07 "Hg10 mi
12:53 pm84 °FBroken clouds.9 mph63%30.08 "Hg10 mi
Weather by CustomWeather, © 2019

See weather overview